{"data":{"norad_id":48604,"epoch":"2026-09-19T17:42:59.480352Z","epoch_age_seconds":103001,"freshness":"FRESH","line1":"1 48604U 21041BD  26262.73818843  .00000615  00000+0  31581-4 0  9993","line2":"2 48604  53.1613 325.8581 0001247 113.6440 246.4692 15.31703893295951","mean_motion":15.31703893,"eccentricity":0.0001247,"inclination_deg":53.1613,"raan_deg":325.8581,"arg_perigee_deg":113.644,"mean_anomaly_deg":246.4692,"bstar":3.1581e-5,"rev_number":29595,"period_min":94.012949015858,"perigee_km":469.87433690562,"apogee_km":471.58244393399,"semimajor_km":6848.8653904198,"source":"CELESTRAK","updated_at":"2026-09-20T09:00:39.139478Z"}}